Weather Roundup
Issued by NWS Chicago, IL

Home | Current Version | Previous Version | Graphics & Text | Print | Product List | Glossary On
Versions: 1 2 3 4 5 6 7 8 9 10 11 12 13 14 15 16 17 18 19 20 21 22 23 24 25 26 27 28 29 30 31 32 33 34 35 36 37 38 39 40 41 42 43 44 45 46 47 48 49 50
000
NZUS59 KLOT 300209
HRRLOT

CHICAGO AREA WEATHER ROUNDUP
NATIONAL WEATHER SERVICE CHICAGO/ROMEOVILLE IL
900 PM CDT FRI JUL 29 2016

NOTE: "FAIR" INDICATES FEW OR NO CLOUDS BELOW 12,000 FEET WITH NO
SIGNIFICANT WEATHER AND/OR OBSTRUCTIONS TO VISIBILITY.

* THESE STATIONS ARE NOT UNDER NWS QUALITY CONTROL. THEY ALSO MAY NOT
  REPORT WEATHER SUCH AS PRECIPITATION OR FOG.

ILZ005-006-012>014-019>023-300300-
NORTHEAST ILLINOIS

CITY           SKY/WX    TMP DP  RH WIND       PRES   REMARKS
OHARE          MOCLDY    71  66  84 E10       29.94S
MIDWAY         CLOUDY    74  68  81 E8        29.94R
AURORA         PTCLDY    71  68  90 NE9       29.94S
LANSING*       MOCLDY    71  65  83 E3        29.94F
JOLIET*        CLOUDY    72  69  91 E5        29.93S
WAUKEGAN       CLOUDY    68  66  93 NE6       29.96R
DUPAGE AIRPORT CLOUDY    71  66  84 NE7       29.94R
WHEELING       CLOUDY    71  66  84 NE3       29.97R
KANKAKEE*      CLOUDY    70  68  92 CALM      29.93F
MORRIS*        CLOUDY    70  68  93 CALM      29.92R
LEWIS AIRPORT* DRIZZLE   70  67  89 E7        29.93S
NORTHERLY ISL    N/A     73  68  84 E8          N/A
$$

WIZ051-052-058>065-066-070>072-300300-
SOUTHEAST WISCONSIN

CITY           SKY/WX    TMP DP  RH WIND       PRES   REMARKS
MILWAUKEE      CLOUDY    70  65  84 NE12      29.99S
KENOSHA*       CLOUDY    70  66  87 NE8       29.98R
RACINE*        CLOUDY    68  65  90 N10       29.99S
BURLINGTON     CLOUDY    68  63  83 N3        29.98S
WAUKESHA       PTCLDY    66  61  82 NE10      30.01S
WEST BEND      CLOUDY    66  59  77 NE5       30.02S
$$

INZ001>003-010>013-019-020-300300-
NORTHWEST INDIANA

CITY           SKY/WX    TMP DP  RH WIND       PRES   REMARKS
GARY*          MOCLDY    73  72  94 NE6       29.94S
MICHIGAN CITY* NOT AVBL
RENSSELAER*    NOT AVBL
VALPARAISO     CLOUDY    69  66  90 N3        29.95R
$$

LMZ740>746-300300-
SOUTHERN LAKE MICHIGAN

STATION/POSITION TIME  SKY/WX   TEMP WIND        PRES    VSBY
                                AIR  DIR/SP/G
                 (UTC)          (F)  (DEG/KT/KT) (MB)    (MI)
HARRISON CRIB    0100            73   90/ 11/ 12   N/A
BURNHAM HARBOR   0200            73   70/  7/ 13   N/A
CALUMET HARBOR   0100                            1013.4
BURNS HARBOR     0102            71   70/  5/ 14 1014.2R
MICHIGAN CITY    0100            71   50/  7/  9   N/A
$$

ABBREVIATIONS USED IN REMARKS
   TC - TEMPERATURE IN CELSIUS
  WCI - WIND CHILL INDEX
   HX - HEAT INDEX
  VSB - VISIBILITY
$$




USA.gov is the U.S. government's official web portal to all federal, state and local government web resources and services.